Kahului, HI

10:15 PM HST on July 24, 2017 (GMT -1000)
Kahului

Weather History for PHOG - June, 2014

Change the Weather History Date:

Sunday, June 15, 2014

  Actual Average Record
Temperature  
Mean Temperature 80 °F 78 °F  
Max Temperature 87 °F 86 °F 94 °F (1952)
Min Temperature 72 °F 70 °F 62 °F (1970)
Degree Days  
Heating Degree Days 0 0  
Month to date heating degree days 0 0  
Since 1 June heating degree days 0 0  
Since 1 July heating degree days 0 0  
Cooling Degree Days 15 13  
Month to date cooling degree days 213 189  
Year to date cooling degree days 1709 1448  
Since 1 June cooling degree days 213 189  
Growing Degree Days 28 (Base 50)    
Moisture  
Dew Point 65 °F    
Average Humidity 66    
Maximum Humidity 84    
Minimum Humidity 48    
Precipitation  
Precipitation T in 0.00 in 0.17 in (1971)
Month to date precipitation 0.02 0.09  
Year to date precipitation 13.98 9.59  
Snow  
Snow 0.00 in - - ()
Month to date snowfall 0.0  
Since 1 June snowfall 0.0  
Since 1 July snowfall 0.0  
Snow Depth 0.00 in    
Sea Level Pressure  
Sea Level Pressure 30.03 in    
Wind  
Wind Speed 19 mph (NE)    
Max Wind Speed 35 mph    
Max Gust Speed 39 mph    
Visibility 10 miles    
Events Rain    
T = Trace of Precipitation, MM = Missing Value Source: NWS Daily Summary

Daily Weather History Graph

Daily Weather History Graph

Search for Another Location

Airport or City:

Trip Planner

Search our weather history database for the weather conditions in past years. The results will help you decide how hot, cold, wet, or windy it might be!

Date:

Astronomy

Jun. 15, 2014 Rise Set
Actual Time 5:44 AM HST 7:08 PM HST
Civil Twilight 5:19 AM HST 7:32 PM HST
Nautical Twilight 4:50 AM HST 8:02 PM HST
Astronomical Twilight 4:19 AM HST 8:33 PM HST
Moon 9:48 PM HST (6/15) 8:32 AM HST (6/15)
Length of Visible Light 14h 13m
Length of Day
13h 23m
Waning Gibbous, 89% of the Moon is Illuminated
Jun 15
Waning Gibbous
Jun 19
Last Quarter
Jun 26
New
Jul 5
First Quarter
Jul 12
Full

Hourly Weather History & Observations

Time (HST) Temp. Heat Index Dew Point Humidity Pressure Visibility Wind Dir Wind Speed Gust Speed Precip Events Conditions
12:54 AM 73.9 °F - 64.9 °F 73% 30.04 in 10.0 mi NE 13.8 mph - N/A   Partly Cloudy
1:54 AM 73.0 °F - 64.0 °F 73% 30.02 in 10.0 mi NE 16.1 mph - N/A   Partly Cloudy
2:54 AM 72.0 °F - 66.9 °F 84% 30.01 in 10.0 mi NE 17.3 mph - 0.00 in Rain Light Rain
3:54 AM 72.0 °F - 64.9 °F 78% 30.01 in 10.0 mi NE 13.8 mph - 0.00 in   Clear
4:54 AM 72.0 °F - 63.0 °F 73% 30.02 in 10.0 mi NE 10.4 mph - N/A   Partly Cloudy
5:54 AM 73.0 °F - 64.9 °F 76% 30.03 in 10.0 mi NE 13.8 mph - N/A   Partly Cloudy
6:54 AM 75.0 °F - 64.9 °F 71% 30.04 in 10.0 mi NE 13.8 mph - N/A   Scattered Clouds
7:54 AM 75.0 °F - 64.9 °F 71% 30.06 in 10.0 mi ENE 16.1 mph 21.9 mph 0.00 in Rain Light Rain
8:54 AM 81.0 °F 82.7 °F 64.9 °F 58% 30.05 in 10.0 mi NE 16.1 mph 24.2 mph 0.00 in   Partly Cloudy
9:54 AM 82.9 °F 84.4 °F 64.0 °F 53% 30.05 in 10.0 mi ENE 21.9 mph 32.2 mph N/A   Partly Cloudy
10:54 AM 84.9 °F 86.6 °F 64.9 °F 51% 30.04 in 10.0 mi NE 26.5 mph 33.4 mph N/A   Partly Cloudy
11:54 AM 86.0 °F 87.3 °F 64.0 °F 48% 30.03 in 10.0 mi NE 23.0 mph 31.1 mph N/A   Clear
12:54 PM 84.9 °F 85.9 °F 63.0 °F 48% 30.02 in 10.0 mi NE 25.3 mph 32.2 mph N/A   Scattered Clouds
1:54 PM 84.9 °F 88.2 °F 68.0 °F 57% 30.01 in 10.0 mi NE 33.4 mph 39.1 mph N/A   Scattered Clouds
2:54 PM 84.9 °F 87.1 °F 66.0 °F 53% 30.00 in 10.0 mi ENE 21.9 mph 34.5 mph N/A   Scattered Clouds
3:54 PM 81.0 °F 83.0 °F 66.0 °F 60% 29.99 in 10.0 mi ENE 21.9 mph 33.4 mph N/A   Scattered Clouds
4:54 PM 82.0 °F 83.1 °F 63.0 °F 52% 29.99 in 10.0 mi ENE 20.7 mph 29.9 mph N/A   Mostly Cloudy
5:54 PM 75.9 °F - 66.0 °F 71% 30.00 in 10.0 mi ENE 20.7 mph 29.9 mph N/A   Scattered Clouds
6:54 PM 75.9 °F - 63.0 °F 64% 30.03 in 10.0 mi ENE 15.0 mph 25.3 mph N/A   Scattered Clouds
7:54 PM 75.0 °F - 64.9 °F 71% 30.04 in 10.0 mi ENE 13.8 mph - N/A   Partly Cloudy
8:54 PM 75.0 °F - 66.0 °F 73% 30.06 in 10.0 mi NE 16.1 mph - N/A   Clear
9:54 PM 73.9 °F - 64.9 °F 73% 30.08 in 10.0 mi NE 12.7 mph - N/A   Partly Cloudy
10:54 PM 73.9 °F - 64.9 °F 73% 30.08 in 10.0 mi NE 11.5 mph - N/A   Clear
11:54 PM 73.0 °F - 64.0 °F 73% 30.06 in 10.0 mi ENE 11.5 mph - N/A   Clear